Location: Doverdale
(52.2833°N, 2.2000°W)
Time: 03:16:40
(UTC+00:00)

CORIOLIS - Pass Details

Date: 29 October 2020
Orbit: 819 x 838 km, 98.7° (Epoch: 24 November)

Event Time Altitude Azimuth Distance (km) Brightness Sun altitude
Rises 17:29:29 0° 164° (SSE) 3,339 7.3 -7.4°
Reaches altitude 10° 17:31:49 10° 164° (SSE) 2,411 6.6 -7.7°
Maximum altitude 17:37:10 86° 254° (WSW) 832 4.3 -8.5°
Drops below altitude 10° 17:42:35 10° 344° (NNW) 2,437 6.7 -9.4°
Sets 17:44:57 0° 345° (NNW) 3,377 7.4 -9.7°
